This is the latest recevied weather packets stored in our database for station/object KD4EG. If no packets are shown the sender has not sent any weather packets the latest 10 day(s).
| Time | Temp. | Humidity | Pressure | Rain* | Wind** | Luminosity | Snow |
|---|---|---|---|---|---|---|---|
| 1788139527 | 25° C | 85% | 1023.1 hPa | 0 mm | - | 0 W/m² | - |
| 1788139227 | 25° C | 84% | 1023.1 hPa | 0 mm | - | 0 W/m² | - |
| 1788138921 | 25° C | 84% | 1023 hPa | 0 mm | - | 0 W/m² | - |
| 1788138617 | 25° C | 85% | 1022.8 hPa | 0 mm | - | 0 W/m² | - |
| 1788138317 | 25° C | 85% | 1022.6 hPa | 0 mm | - | 0 W/m² | - |
| 1788138014 | 25° C | 85% | 1022.6 hPa | 0 mm | - | 0 W/m² | - |
| 1788137709 | 25.56° C | 85% | 1022.7 hPa | 0 mm | - | 0 W/m² | - |
| 1788137407 | 25.56° C | 84% | 1022.4 hPa | 0 mm | - | 0 W/m² | - |
| 1788137104 | 26.11° C | 83% | 1022.3 hPa | 0 mm | - | 0 W/m² | - |
| 1788136800 | 26.11° C | 83% | 1022.4 hPa | 0 mm | - | 0 W/m² | - |
| 1788136496 | 26.11° C | 83% | 1022.4 hPa | 0 mm | - | 0 W/m² | - |
| 1788136195 | 26.11° C | 83% | 1022.5 hPa | 0 mm | - | 0 W/m² | - |
| 1788135894 | 26.67° C | 82% | 1022.4 hPa | 0 mm | - | 0 W/m² | - |
| 1788135589 | 26.67° C | 82% | 1022.2 hPa | 0 mm | - | 0 W/m² | - |
| 1788135284 | 26.67° C | 81% | 1021.9 hPa | 0 mm | - | 0 W/m² | - |
| 1788134982 | 26.67° C | 81% | 1022.2 hPa | 0 mm | - | 0 W/m² | - |
| 1788134678 | 26.67° C | 80% | 1022.3 hPa | 0 mm | - | 0 W/m² | - |
| 1788134376 | 26.67° C | 81% | 1022 hPa | 0 mm | - | 0 W/m² | - |
| 1788134071 | 27.22° C | 80% | 1022 hPa | 0 mm | - | 0 W/m² | - |
| 1788133766 | 27.22° C | 79% | 1022 hPa | 0 mm | - | 1 W/m² | - |
| 1788133461 | 28.33° C | 76% | 1022.2 hPa | 0 mm | - | 3 W/m² | - |
| 1788133157 | 28.33° C | 73% | 1021.8 hPa | 0 mm | - | 6 W/m² | - |
| 1788132852 | 28.33° C | 73% | 1022 hPa | 0 mm | - | 9 W/m² | - |
| 1788132548 | 28.89° C | 72% | 1021.9 hPa | 0 mm | - | 15 W/m² | - |
| 1788132257 | 28.89° C | 72% | 1022 hPa | 0 mm | - | 16 W/m² | - |
* Rain latest hour (hover to see other rain measurements)
** Current wind speed in m/s (hover to see current wind gust speed)